Wind_Speed
66 67 67 62 62 64 63 63 64 63 64 65 65 66 51 41 37 35 34 33 31 30 31 31 31 31 33 35 37 40 44 48 54 56 59 62 65 67 70 72 74 75 75
66 65 65 61 62 63 60 60 61 61 63 64 67 55 43 38 37 36 36 36 36 35 35 36 38 38 40 42 45 48 51 55 60 65 67 69 69 69 70 69 70 70 73
66 64 60 59 61 58 58 59 58 60 62 64 59 46 39 37 36 36 37 38 40 41 42 42 45 46 48 51 53 55 59 62 64 66 69 68 68 66 70 71 76 78 80
65 61 58 58 58 58 58 58 60 62 62 65 49 41 38 36 35 36 38 39 41 45 47 49 52 54 57 58 59 60 63 65 62 62 65 70 72 74 75 73 77 77 80
61 55 53 54 54 56 57 59 61 63 63 59 44 38 35 34 35 37 39 42 44 46 48 50 53 55 57 56 57 56 57 61 63 68 69 72 74 75 74 73 71 69 65
56 48 49 50 51 55 58 60 61 63 64 53 42 34 33 36 39 40 41 43 47 49 51 51 49 45 44 45 46 49 52 59 64 67 71 73 73 70 65 56 52 49 48
45 45 43 49 54 62 61 61 61 62 62 48 39 35 40 44 43 41 40 40 41 39 37 36 38 39 41 46 50 53 56 59 62 66 68 66 61 53 48 43 40 37 36
43 41 54 66 67 66 64 61 60 60 60 45 37 39 43 41 38 36 34 33 31 29 30 33 38 42 46 50 54 58 60 62 62 61 58 54 46 41 37 32 28 26 23
46 54 61 66 63 68 64 60 59 59 56 42 38 41 38 36 32 29 28 29 32 34 36 38 43 46 48 52 56 59 61 61 58 55 51 42 37 32 27 23 18 15 13
50 53 59 62 65 71 61 57 56 58 54 38 39 35 31 28 28 30 33 36 37 39 42 43 46 48 51 54 56 59 59 57 54 48 39 34 29 23 17 12 11 11 11
51 55 62 63 65 73 63 56 55 57 51 37 34 29 28 29 31 33 36 41 42 43 45 48 48 50 53 56 57 56 54 51 48 39 32 26 20 14 11 12 13 14 15
52 59 62 64 69 77 63 58 57 58 51 35 32 30 30 34 37 37 42 44 47 48 49 49 50 52 55 58 57 53 49 46 40 31 24 17 12 10 12 15 16 18 21
56 60 64 68 73 70 59 56 59 59 48 34 33 32 34 36 40 44 47 49 50 51 51 50 52 54 55 54 50 46 44 41 31 23 15 8 8 11 13 17 20 21 24
57 56 62 65 72 67 57 57 59 56 43 34 34 36 39 41 44 47 49 51 52 52 51 52 53 54 53 48 44 42 41 34 24 15 6 6 11 16 19 21 22 24 25
55 57 63 68 73 68 57 58 60 52 40 34 34 37 40 43 45 48 49 51 51 50 52 53 54 54 50 44 41 39 36 27 17 6 5 10 15 17 17 19 20 21 21
54 61 66 73 70 65 56 58 58 47 38 36 36 38 40 41 43 45 46 47 48 50 53 54 55 51 46 42 39 36 30 19 9 3 10 14 14 17 16 16 17 17 18
58 60 69 72 68 56 55 58 56 44 38 37 38 39 39 40 42 43 45 47 50 52 54 55 52 48 44 41 38 33 24 12 3 8 14 15 16 14 13 14 13 14 14
57 60 68 73 55 51 55 57 52 41 39 39 40 40 41 42 43 45 48 51 53 54 54 53 50 47 43 40 36 28 16 6 6 13 16 17 16 13 12 11 10 11 10
55 61 73 59 50 51 56 55 48 40 40 41 42 42 41 43 46 49 52 54 55 55 53 51 49 45 41 38 31 21 9 4 10 17 18 19 15 12 11 8 7 7 7
57 60 70 55 50 52 56 54 45 39 40 41 41 40 42 45 49 53 54 54 54 53 52 49 46 42 39 33 24 12 3 7 14 19 20 19 14 11 9 5 3 5 9
49 62 72 61 53 54 57 55 44 39 39 40 40 42 44 48 52 53 54 55 54 53 51 48 44 40 34 26 15 5 4 10 17 20 21 18 13 9 6 2 3 7 12
49 62 70 75 59 55 59 57 46 40 40 41 41 44 47 51 53 55 56 55 54 53 50 47 41 35 27 17 8 0 7 13 19 20 20 17 12 8 4 1 6 11 16
52 59 73 73 67 56 59 59 49 40 39 41 42 45 49 54 56 57 58 56 54 50 47 41 34 27 18 9 3 4 9 15 20 20 18 15 10 5 1 4 9 14 19
56 64 79 80 62 54 58 60 53 42 39 41 42 46 50 55 57 59 58 56 52 48 42 34 27 19 12 5 3 7 11 16 19 18 15 12 9 4 3 7 11 15 15
56 72 77 72 52 54 58 61 55 45 40 40 43 46 51 56 58 59 57 54 50 45 38 29 22 15 8 5 6 9 12 17 18 16 13 10 5 0 5 9 12 11 10
67 75 72 60 50 54 58 60 56 48 41 40 43 47 51 56 57 58 56 51 49 42 33 25 18 11 6 6 8 10 14 18 17 14 11 7 3 3 8 9 9 9 12
Wind_Direction
313 313 314 317 318 320 321 320 320 319 319 320 321 321 316 310 306 303 305 304 300 298 295 294 293 290 290 292 292 291 290 290 290 290 289 287 286 285 284 283 282 280 276
313 314 317 319 319 321 321 321 320 320 321 322 323 320 314 309 305 300 299 300 298 297 295 293 291 290 289 289 290 289 290 291 292 291 291 290 289 287 285 283 281 280 278
312 316 320 320 320 321 320 322 322 322 323 325 323 318 313 310 306 297 296 296 296 295 292 290 290 290 289 288 288 291 292 291 292 293 293 293 292 290 288 287 285 283 280
314 318 320 319 319 319 320 324 324 325 326 327 322 317 314 310 305 297 295 297 299 298 295 294 294 292 290 290 290 291 293 294 297 298 297 295 294 292 290 289 287 283 280
317 320 319 321 321 321 322 326 326 327 329 328 321 318 317 314 310 303 297 295 297 298 297 298 298 298 297 296 296 297 299 300 301 299 298 297 297 298 297 293 289 286 283
321 322 324 328 329 331 332 328 328 328 330 327 321 319 320 319 313 307 305 301 299 299 300 301 300 301 303 303 304 303 302 300 301 303 305 304 303 301 298 295 293 290 287
322 321 323 326 331 335 333 331 329 329 331 326 321 316 318 319 316 314 310 306 306 306 305 306 310 313 313 311 309 307 307 307 308 308 307 307 307 307 306 303 297 294 289
318 316 323 323 326 332 332 332 330 330 333 326 322 320 320 321 321 319 318 319 321 320 320 320 318 316 315 314 314 315 314 313 313 313 313 313 313 313 311 309 306 302 299
305 301 308 322 331 334 331 331 332 331 333 325 324 325 327 326 328 332 336 335 329 326 323 322 320 319 319 318 317 316 317 317 319 320 320 320 320 321 323 322 320 320 323
301 310 317 326 332 335 331 332 332 331 333 323 327 330 329 333 336 335 334 332 328 328 328 324 323 323 322 320 319 321 321 323 324 325 325 326 327 332 335 340 356 10 18
306 316 320 331 339 340 335 332 332 334 332 321 326 325 324 326 327 328 330 331 329 327 326 326 325 324 323 323 324 324 325 326 327 329 329 331 337 345 1 26 39 46 49
312 314 323 326 328 336 335 332 332 335 332 320 318 317 315 318 322 324 327 326 327 327 326 326 326 326 328 327 326 326 327 330 331 331 331 340 355 22 44 51 54 64 68
314 315 322 326 332 336 333 332 334 334 333 320 311 311 312 314 316 319 322 325 325 325 327 326 328 329 329 328 327 328 330 332 333 331 338 5 39 55 62 76 86 84 81
315 317 323 327 334 337 332 333 336 335 331 321 310 308 308 310 315 319 321 322 323 325 325 327 328 331 330 329 328 330 331 332 332 333 6 67 73 85 94 96 94 91 86
314 316 323 328 333 335 332 334 336 334 329 323 318 312 310 312 315 317 319 321 322 324 326 328 330 331 331 331 329 329 331 332 329 334 114 103 100 107 102 102 97 92 85
319 321 324 329 331 334 332 336 336 334 330 326 325 323 322 320 319 319 320 322 324 325 328 329 331 332 330 329 328 328 331 329 321 167 135 121 117 118 113 107 98 90 83
321 328 331 334 332 332 334 337 336 334 333 329 329 329 327 326 326 325 325 327 327 328 330 330 331 330 329 327 327 329 329 321 276 162 143 136 138 131 124 113 97 86 81
324 325 329 335 333 334 338 339 337 335 334 333 333 332 332 332 330 329 329 331 330 330 330 331 331 330 327 326 327 328 324 301 189 160 151 151 151 142 136 119 99 86 69
326 326 339 333 335 337 340 341 338 335 334 336 336 335 335 334 333 332 333 332 331 330 332 331 329 327 325 326 327 325 315 240 176 163 158 160 159 156 149 125 108 77 38
325 329 339 336 338 337 341 343 340 336 336 336 336 337 337 336 335 334 332 330 331 332 331 330 328 326 325 326 326 323 283 185 173 165 164 167 165 162 156 123 73 14 360
322 336 346 340 339 338 343 344 339 336 335 336 338 337 337 337 336 332 332 333 334 333 331 330 329 328 327 327 326 317 200 175 171 168 170 172 170 166 158 142 346 349 344
322 339 339 340 335 339 344 344 339 336 336 336 336 337 338 337 336 335 335 336 334 334 332 331 330 329 329 328 328 253 171 171 171 170 173 176 173 165 162 311 339 340 341
323 326 340 340 335 338 343 343 339 333 332 334 336 337 337 337 338 338 337 336 336 336 333 334 334 334 336 340 7 144 163 168 171 171 173 179 179 176 211 324 332 342 346
316 326 336 337 337 340 342 342 338 331 328 332 335 337 337 338 338 338 337 337 338 338 338 340 342 344 350 13 91 145 158 165 169 170 171 176 189 213 305 342 355 355 360
317 327 333 336 339 342 340 341 337 331 327 329 333 335 336 338 338 338 338 340 341 343 345 348 352 356 11 55 116 142 151 160 165 166 168 174 181 50 359 360 6 16 29
326 334 335 339 342 339 338 339 336 333 328 327 331 333 335 337 338 339 340 343 345 347 350 354 359 9 36 85 124 134 145 153 158 162 167 173 160 19 18 26 40 48 15
Height
10693 10683 10673 10661 10649 10639 10628 10617 10606 10596 10584 10573 10562 10550 10539 10533 10529 10525 10521 10517 10514 10511 10508 10505 10502 10499 10496 10491 10487 10484 10479 10474 10466 10462 10457 10452 10445 10440 10432 10427 10422 10418 10413
10682 10673 10662 10650 10639 10629 10619 10609 10599 10587 10575 10561 10550 10538 10531 10525 10521 10517 10512 10509 10505 10502 10499 10495 10492 10489 10485 10481 10477 10471 10466 10460 10452 10443 10436 10429 10423 10418 10410 10402 10395 10392 10385
10674 10663 10652 10641 10631 10620 10610 10601 10591 10580 10566 10553 10539 10529 10522 10518 10513 10509 10504 10500 10496 10493 10489 10485 10481 10477 10472 10467 10462 10457 10450 10443 10436 10427 10416 10407 10398 10393 10384 10379 10369 10363 10356
10663 10653 10643 10634 10624 10613 10603 10593 10581 10569 10556 10542 10530 10522 10515 10509 10504 10499 10495 10491 10487 10482 10477 10473 10468 10463 10457 10452 10447 10442 10433 10423 10416 10407 10397 10386 10377 10367 10359 10354 10340 10333 10324
10653 10644 10636 10628 10618 10607 10595 10582 10570 10558 10545 10532 10522 10515 10508 10502 10496 10490 10486 10481 10477 10471 10466 10461 10454 10448 10441 10436 10429 10424 10417 10406 10396 10386 10377 10364 10352 10341 10333 10321 10312 10301 10295
10646 10638 10631 10622 10611 10598 10585 10572 10561 10549 10536 10523 10515 10507 10500 10495 10489 10482 10477 10472 10466 10460 10454 10447 10440 10434 10428 10422 10417 10410 10405 10395 10380 10369 10354 10341 10328 10318 10306 10298 10289 10281 10276
10640 10632 10623 10613 10601 10589 10576 10564 10551 10539 10527 10515 10507 10500 10492 10486 10479 10473 10468 10461 10455 10450 10444 10437 10430 10424 10418 10410 10403 10395 10386 10377 10366 10352 10337 10323 10310 10298 10288 10281 10274 10268 10263
10634 10625 10615 10603 10591 10579 10567 10555 10543 10531 10518 10507 10500 10493 10484 10477 10470 10464 10458 10452 10447 10441 10436 10429 10422 10415 10407 10398 10388 10377 10367 10357 10346 10336 10321 10307 10296 10286 10278 10271 10264 10259 10254
10625 10617 10608 10596 10583 10570 10558 10547 10534 10523 10510 10500 10492 10485 10477 10469 10463 10457 10452 10447 10441 10435 10429 10422 10413 10404 10396 10387 10376 10364 10352 10341 10330 10318 10305 10295 10286 10278 10271 10265 10259 10254 10250
10616 10608 10601 10588 10575 10561 10549 10537 10526 10515 10502 10492 10485 10479 10472 10465 10459 10453 10448 10442 10435 10427 10419 10412 10403 10394 10384 10374 10363 10350 10338 10326 10315 10306 10296 10287 10280 10274 10269 10263 10258 10253 10250
10610 10601 10591 10579 10567 10554 10541 10529 10517 10505 10494 10486 10480 10473 10466 10460 10455 10449 10443 10435 10427 10419 10409 10400 10392 10383 10373 10361 10349 10338 10327 10317 10307 10297 10289 10283 10278 10273 10269 10264 10260 10257 10254
10601 10593 10583 10570 10558 10545 10531 10520 10509 10496 10486 10478 10473 10467 10460 10454 10448 10443 10436 10428 10418 10409 10400 10392 10382 10372 10360 10347 10336 10326 10318 10309 10299 10292 10286 10281 10277 10274 10270 10266 10264 10261 10258
10592 10583 10573 10562 10548 10535 10523 10511 10499 10488 10478 10471 10464 10459 10453 10447 10441 10434 10426 10417 10408 10399 10390 10381 10372 10361 10350 10339 10328 10318 10310 10302 10294 10289 10284 10281 10278 10275 10272 10270 10269 10267 10264
10583 10573 10564 10552 10539 10528 10514 10502 10492 10480 10470 10463 10457 10451 10444 10438 10433 10425 10417 10408 10398 10390 10381 10371 10361 10352 10341 10331 10320 10312 10304 10297 10291 10287 10284 10281 10279 10277 10277 10275 10274 10273 10271
10575 10565 10556 10542 10530 10519 10505 10494 10484 10472 10463 10457 10450 10443 10436 10431 10425 10416 10407 10398 10390 10381 10371 10360 10349 10340 10330 10322 10314 10306 10299 10292 10288 10285 10283 10283 10282 10282 10282 10281 10280 10278 10276
10566 10556 10546 10534 10522 10510 10498 10486 10476 10465 10456 10450 10443 10436 10429 10422 10415 10408 10399 10390 10382 10371 10360 10349 10339 10330 10321 10314 10306 10299 10294 10289 10286 10284 10284 10284 10285 10286 10286 10285 10284 10282 10280
10555 10547 10537 10524 10513 10500 10491 10479 10467 10457 10449 10443 10436 10429 10421 10415 10407 10399 10390 10382 10372 10361 10350 10340 10330 10322 10313 10306 10299 10293 10288 10285 10283 10283 10283 10285 10288 10289 10289 10288 10287 10286 10285
10548 10539 10528 10516 10502 10493 10483 10471 10460 10450 10443 10436 10429 10421 10414 10407 10399 10391 10381 10372 10361 10351 10341 10330 10320 10312 10305 10298 10292 10287 10283 10281 10281 10282 10284 10286 10289 10290 10290 10290 10290 10289 10287
10541 10531 10520 10505 10495 10486 10476 10465 10454 10445 10437 10430 10422 10415 10408 10400 10392 10382 10372 10362 10352 10341 10331 10321 10312 10304 10297 10290 10285 10281 10278 10278 10279 10281 10283 10287 10289 10290 10291 10291 10291 10289 10288
10533 10523 10511 10498 10490 10481 10470 10457 10448 10440 10432 10425 10418 10411 10403 10395 10385 10374 10365 10355 10344 10333 10322 10313 10305 10296 10289 10283 10279 10276 10274 10275 10277 10280 10284 10287 10290 10292 10292 10293 10293 10291 10289
10525 10516 10503 10494 10485 10475 10462 10450 10441 10435 10428 10421 10413 10406 10398 10389 10379 10369 10358 10347 10335 10325 10314 10304 10296 10288 10282 10277 10274 10272 10272 10274 10277 10280 10284 10288 10290 10292 10293 10292 10292 10291 10288
10519 10508 10498 10489 10479 10467 10456 10445 10436 10428 10422 10415 10409 10401 10392 10384 10374 10362 10350 10339 10328 10317 10306 10296 10288 10281 10276 10272 10270 10270 10271 10273 10277 10281 10285 10289 10291 10293 10293 10293 10292 10290 10287
10510 10501 10493 10483 10472 10461 10450 10441 10431 10424 10418 10411 10404 10396 10387 10377 10367 10355 10344 10332 10321 10310 10300 10290 10282 10276 10272 10269 10268 10269 10271 10273 10277 10282 10286 10290 10292 10293 10293 10293 10291 10289 10285
10503 10494 10485 10476 10464 10455 10446 10438 10429 10420 10413 10407 10400 10391 10382 10372 10361 10350 10339 10327 10315 10304 10293 10284 10278 10273 10270 10268 10268 10269 10272 10275 10279 10283 10288 10291 10293 10294 10294 10293 10290 10287 10284
10497 10491 10479 10467 10456 10449 10441 10433 10425 10416 10408 10402 10394 10386 10377 10367 10356 10345 10333 10320 10308 10297 10288 10280 10275 10272 10269 10268 10269 10271 10273 10277 10281 10286 10289 10292 10294 10294 10294 10292 10290 10287 10284
10492 10482 10472 10461 10450 10444 10437 10429 10420 10411 10403 10396 10389 10382 10372 10362 10351 10339 10327 10315 10303 10293 10285 10279 10275 10272 10270 10270 10271 10273 10276 10280 10284 10288 10291 10293 10295 10295 10294 10292 10290 10288 10285